Content
SEND FEEDBACK

Daily
Averages
Monthly
Summary
Spain

A CORUŅA - DOWNTOWN, SPAIN


Home > Europe > Spain
Elevation: 220 feet     Latitude: 43 22N     Longitude: 008 25W

WEATHER
 
SELECT A DAY
Number of Records: 270,015;   Date Range: 7/1/96 - 7/26/14
 
SHARE

PRINT THIS DATA

[ ← Previous Day ]
WEATHER ALMANAC - FEBRUARY 8, 2013
[ Next Day → ]
[ °C ]   °F
Weather ElementAverageHighLow
Temperature51.2 °F55.4 °F (1:00 pm)48.2 °F (8:00 pm)
Dewpoint42.2 °F50 °F (1:00 am)39.2 °F (9:30 am)
Humidity71.2 %94 % (1:00 am)62 % (9:30 am)
Barometer30.34 in30.39 in (11:30 pm)30.30 in (5:30 am)
Wind Speed11.9 mph17.3 mph (1:00 pm)
Weather ElementAverage
Visibility6.2 mi
Wind DirectionESE (110.5 °)

Weather ElementTotal
Precipitation---
Heating Degree Days13.2 (Base 65)
Growing Degree Days1.8 (Base 50)
Averaged from 39 records on February 8, 2013
WEATHER CONDITIONS BREAKOUT
WIND DIRECTION BREAKOUT
WEATHER BY HOUR - FEBRUARY 8, 2013
[ °C ]   °F
Local TimeTemperatureDewpointHumidityBarometerVisibilityWind DirectionWind SpeedGust SpeedPrecipitationEventsConditions
12:30 AM51.8 °F48.2 °F88 %30.36 in6.2 miNW (310°)8.1 mphMostly Cloudy
1:00 AM51.8 °F50.0 °F94 %30.33 in6.2 miNW (310°)9.2 mphRainLight Rain
5:30 AM51.8 °F44.6 °F76 %30.30 in6.2 miNorth (360°)16.1 mphMostly Cloudy
6:00 AM51.8 °F42.8 °F71 %30.33 in6.2 miNorth (350°)12.7 mphMostly Cloudy
6:30 AM51.8 °F42.8 °F71 %30.33 in6.2 miNorth (10°)12.7 mphMostly Cloudy
7:00 AM50.0 °F41.0 °F71 %30.33 in6.2 miNorth (10°)12.7 mphScattered Clouds
7:30 AM51.8 °F41.0 °F67 %30.33 in6.2 miNorth (360°)12.7 mphScattered Clouds
8:00 AM51.8 °F42.8 °F71 %30.33 in6.2 miNorth (350°)11.5 mphScattered Clouds
8:30 AM51.8 °F42.8 °F71 %30.33 in6.2 miNorth (10°)15.0 mphScattered Clouds
9:00 AM50.0 °F41.0 °F71 %30.33 in6.2 miNorth (350°)6.9 mphScattered Clouds
9:30 AM51.8 °F39.2 °F62 %30.33 in6.2 miNorth (350°)9.2 mphScattered Clouds
10:00 AM51.8 °F41.0 °F67 %30.36 in6.2 miNorth (350°)11.5 mphScattered Clouds
10:30 AM51.8 °F42.8 °F71 %30.36 in6.2 miNNE (20°)13.8 mphMostly Cloudy
11:00 AM50.0 °F42.8 °F76 %30.36 in6.2 miNNE (20°)8.1 mphMostly Cloudy
11:30 AM50.0 °F44.6 °F82 %30.36 in6.2 miNNE (20°)10.4 mphRainLight Rain
12:00 PM53.6 °F44.6 °F72 %30.36 in6.2 miNorth (10°)10.4 mphScattered Clouds
12:30 PM53.6 °F42.8 °F67 %30.36 in6.2 miNorth (10°)16.1 mphScattered Clouds
1:00 PM55.4 °F44.6 °F67 %30.36 in6.2 miNorth (10°)17.3 mphScattered Clouds
1:30 PM51.8 °F42.8 °F71 %30.36 in6.2 miNNE (30°)12.7 mphScattered Clouds
2:00 PM53.6 °F42.8 °F67 %30.33 in6.2 miNorth (10°)13.8 mphScattered Clouds
2:30 PM51.8 °F42.8 °F71 %30.33 in6.2 miNorth (360°)16.1 mphMostly Cloudy
3:00 PM51.8 °F42.8 °F71 %30.33 in6.2 miNNE (20°)13.8 mphMostly Cloudy
3:30 PM51.8 °F44.6 °F76 %30.33 in6.2 miNorth (350°)15.0 mphScattered Clouds
4:00 PM51.8 °F42.8 °F71 %30.33 in6.2 miNorth (10°)12.7 mphScattered Clouds
4:30 PM51.8 °F41.0 °F67 %30.33 in6.2 miNorth (10°)16.1 mphMostly Cloudy
5:00 PM51.8 °F41.0 °F67 %30.33 in6.2 miNNE (20°)17.3 mphScattered Clouds
5:30 PM51.8 °F41.0 °F67 %30.33 in6.2 miNorth (10°)16.1 mphScattered Clouds
6:00 PM51.8 °F41.0 °F67 %30.33 in6.2 miNNE (30°)13.8 mphMostly Cloudy
6:30 PM50.0 °F39.2 °F66 %30.33 in6.2 miNNE (20°)12.7 mphScattered Clouds
7:00 PM50.0 °F41.0 °F71 %30.33 in6.2 miNNE (20°)11.5 mphScattered Clouds
7:30 PM50.0 °F41.0 °F71 %30.33 in6.2 miNNE (20°)10.4 mphMostly Cloudy
8:00 PM48.2 °F41.0 °F76 %30.33 in6.2 miNNE (20°)11.5 mphMostly Cloudy
8:30 PM50.0 °F39.2 °F66 %30.36 in6.2 miNNE (20°)10.4 mphMostly Cloudy
9:00 PM50.0 °F41.0 °F71 %30.36 in6.2 miNNE (30°)11.5 mphMostly Cloudy
9:30 PM50.0 °F39.2 °F66 %30.36 in6.2 miNNE (30°)8.1 mphMostly Cloudy
10:00 PM50.0 °F39.2 °F66 %30.36 in6.2 miNNE (30°)5.8 mphMostly Cloudy
10:30 PM50.0 °F39.2 °F66 %30.36 in6.2 miNNE (20°)4.6 mphScattered Clouds
11:00 PM50.0 °F41.0 °F71 %30.36 in6.2 miNNE (20°)8.1 mphScattered Clouds
11:30 PM48.2 °F41.0 °F76 %30.39 in6.2 miNNE (20°)8.1 mphScattered Clouds
Hourly data recorded from LECO, located miles away from A Coruņa - Downtown, Spain







STORIES FROM OUR PARTNERS